Regional Weather Roundup
Issued by NWS State College, PA

Home | Current Version | Previous Version | Text Only | Print | Product List | Glossary On
Versions: 1 2 3 4 5 6 7 8 9 10 11 12 13 14 15 16 17 18 19 20 21 22 23 24 25 26 27 28 29 30 31 32 33 34 35 36 37 38 39 40 41 42 43 44 45 46 47 48 49 50
000
ASUS41 KCTP 270403
RWRCTP

REGIONAL WEATHER ROUNDUP
NATIONAL WEATHER SERVICE STATE COLLEGE PA
1200 AM EDT THU JUL 27 2017

Note: "fair" indicates few or no clouds below 12,000 feet with no
significant weather and/or obstructions to visibility.

* = STATION THAT DOES NOT REPORT PRECIPITATION /E.G. RAIN...SNOW...ETC/
    THUNDER OR FOG.

PAZ002>004-007>009-013>016-020>023-029>032-270500-
WESTERN PENNSYLVANIA

CITY           SKY/WX    TMP DP  RH WIND       PRES   REMARKS
ERIE           CLOUDY    68  62  81 S9        30.03F
MEADVILLE      MOCLDY    67  64  90 VRB3      30.07F
FRANKLIN*      MOCLDY    63  61  94 N3        30.09F
NEW CASTLE     FAIR      65  64  97 CALM      30.07F
BEAVER COUNTY  NOT AVBL
BUTLER*        PTCLDY    64  63  94 CALM      30.08F
PITTSBURGH INT MOCLDY    68  64  87 CALM      30.07F
PITTSBURGH     PTCLDY    72  61  68 CALM      30.07F
INDIANA*       CLEAR     66  64  94 CALM      30.12S
LATROBE        PTCLDY    64  64 100 CALM      30.09S
WASHINGTON CO* PTCLDY    61  59  94 CALM      30.08F
$$

PAZ004>006-010>012-017>019-024>028-033>037-041-042-045-046-049>053-270500-
CENTRAL PENNSYLVANIA

CITY           SKY/WX    TMP DP  RH WIND       PRES   REMARKS
BRADFORD       PTCLDY    60  60 100 SE5       30.12F
DUBOIS         PTCLDY    63  59  87 E5        30.11S
CLEARFIELD     PTCLDY    62  61  96 N7        30.12S
JOHNSTOWN      PTCLDY    65  61  87 CALM      30.13F
ALTOONA        PTCLDY    64  63  96 CALM      30.11F
STATE COLLEGE  PTCLDY    67  60  80 W5        30.11S
WILLIAMSPORT     N/A     66  63  90 CALM      30.08F
SELINSGROVE    CLOUDY    64  64 100 CALM      30.09F
FT INDIANTOWN  CLOUDY    71  65  83 CALM      30.12S
CAPITAL CITY   CLOUDY    72  64  76 S6        30.10F
HARRISBURG     CLOUDY    72  67  84 S8        30.10S
YORK           CLOUDY    70  67  90 SE9       30.11S
$$

PAZ038>040-043-044-047-048-054-055-060>062-067>071-270500-
EASTERN PENNSYLVANIA

CITY           SKY/WX    TMP DP  RH WIND       PRES   REMARKS
SCRANTON       CLOUDY    69  62  78 CALM      30.11F
MOUNT POCONO   MOCLDY    61  60  97 SE3       30.16F
ALLENTOWN      CLOUDY    70  60  70 SE6       30.13F
QUAKERTOWN*    MOCLDY    68  63  83 S5        30.14F
READING        CLOUDY    70  66  87 SE6       30.11F
LANCASTER      CLOUDY    69  65  86 S9        30.12F
COATESVILLE    MOCLDY    66  63  88 SE3       30.16S
POTTSTOWN      CLOUDY    67  62  84 VRB3      30.15F
BLUE BELL      MOCLDY    64  61  88 S3        30.16S
DOYLESTOWN     CLOUDY    65  61  87 VRB3      30.14S
WILLOW GROVE   NOT AVBL
NORTH PHILA    PTCLDY    68  61  78 CALM      30.16S
PHILADELPHIA   MOCLDY    67  61  81 S3        30.15S
$$



USA.gov is the U.S. government's official web portal to all federal, state and local government web resources and services.